Home   Weather   Tychy   Past weeks

Flag for Poland Past Weather in Tychy, Poland — Yesterday and Last 2 Weeks

Now
32 °F

Passing clouds.


Feels Like: 26 °F
Forecast: 15 / 28 °F
Wind: 7 mph from Southeast

Location: Katowice Airport

Current Time: Jan 22, 2017 at 9:31:00 am

Latest Report: Jan 22, 2017 at 9:00 am


Visibility: 4 mi

Pressure: 30.48 "Hg

Humidity: 80%

Dew Point: 27 °F

Location of TychyLocation

Past Weather in Tychy — Graph

°F

Tychy Temperature Yesterday

Maximum temperature yesterday: 34 °F (at 1:00 pm)
Minimum temperature yesterday: 23 °F (at 10:30 pm)
Average temperature yesterday: 30 °F

High & Low Weather Summary for the Past Weeks

 TemperatureHumidityPressure
High39 °F (Jan 13, 11:30 am)100% (Jan 15, 5:30 am)30.69 "Hg (Jan 15, 5:30 am)
Low-18 °F (Jan 7, 8:00 am)46% (Jan 9, 2:00 pm)29.30 "Hg (Jan 13, 2:00 pm)
Average20 °F84%30.16 "Hg
* Reported Jan 7 8:00 am — Jan 22 8:00 am, Tychy, Weather by CustomWeather, © 2017

Note: Actual official high and low records may vary slightly from our data, if they occured in-between our weather recording intervals... More about our weather records

Advertising

Tychy Weather History for the Previous 24 Hours

Scroll right to see more
 ConditionsComfort  
Time TempWeatherWind HumidityBarometerVisibility
8:00 am
Sun, Jan 22
32 °FOvercast.8 mph80%30.48 "Hg5 mi
7:30 am30 °FOvercast.8 mph86%30.48 "Hg5 mi
7:00 am30 °FOvercast.8 mph86%30.48 "Hg6 mi
6:30 am30 °FMostly cloudy.9 mph86%30.45 "HgN/A
6:00 am30 °FMostly cloudy.10 mph86%30.45 "HgN/A
5:30 am30 °FMostly cloudy.5 mph86%30.45 "Hg6 mi
5:00 am30 °FOvercast.8 mph86%30.45 "Hg5 mi
4:30 am30 °FOvercast.6 mph86%30.48 "Hg4 mi
4:00 am30 °FOvercast.8 mph86%30.48 "Hg4 mi
3:30 am30 °FIce fog.6 mph93%30.48 "Hg2 mi
3:00 am30 °FIce fog.5 mph93%30.48 "Hg2 mi
2:30 am30 °FIce fog.6 mph93%30.48 "Hg2 mi
2:00 am28 °FIce fog.6 mph100%30.48 "Hg2 mi
1:30 am28 °FIce fog.3 mph100%30.48 "Hg1 mi
1:00 am28 °FIce fog.2 mph93%30.48 "Hg1 mi
12:30 am25 °FIce fog.3 mph100%30.48 "Hg1 mi
12:00 am27 °FIce fog.3 mph100%30.48 "Hg1 mi
11:30 pm
Sat, Jan 21
23 °FIce fog.2 mph100%30.51 "Hg1 mi
11:00 pm23 °FIce fog.1 mph93%30.51 "Hg0 mi
10:30 pm23 °FIce fog.1 mph100%30.48 "Hg0 mi
10:00 pm27 °FIce fog.1 mph100%30.48 "Hg0 mi
9:30 pm27 °FIce fog.2 mph100%30.48 "Hg0 mi
9:00 pm25 °FIce fog.1 mph100%30.48 "Hg0 mi
8:30 pm27 °FIce fog.1 mph93%30.48 "Hg0 mi
8:00 pm28 °FChilly.1 mph93%30.48 "Hg1 mi
7:30 pm28 °FIce fog.1 mph93%30.48 "Hg1 mi
7:00 pm30 °FIce fog.1 mph93%30.48 "Hg3 mi
6:30 pm32 °FIce fog.2 mph87%30.48 "Hg3 mi
6:00 pm32 °FIce fog.2 mph87%30.48 "Hg2 mi
5:30 pm32 °FIce fog.1 mph87%30.45 "Hg2 mi
5:00 pm32 °FIce fog.2 mph87%30.45 "Hg3 mi
4:30 pm32 °FOvercast.1 mph87%30.45 "Hg5 mi
4:00 pm32 °FPartly sunny.1 mph80%30.45 "Hg4 mi
3:30 pm32 °FScattered clouds.2 mph80%30.45 "Hg4 mi
3:00 pm34 °FPassing clouds.5 mph75%30.45 "Hg4 mi
2:30 pm34 °FScattered clouds.6 mph75%30.45 "Hg5 mi
2:00 pm34 °FScattered clouds.7 mph81%30.45 "Hg4 mi
1:30 pm34 °FScattered clouds.6 mph81%30.45 "Hg4 mi
1:00 pm34 °FBroken clouds.2 mph81%30.45 "HgN/A
12:30 pm32 °FBroken clouds.5 mph87%30.48 "HgN/A
12:00 pm32 °FPartly sunny.7 mph87%30.48 "HgN/A
11:30 am32 °FPartly sunny.7 mph87%30.48 "HgN/A
11:00 am32 °FPartly sunny.6 mph93%30.48 "Hg5 mi
10:30 am30 °FIce fog.5 mph93%30.48 "Hg2 mi
10:00 am30 °FIce fog.6 mph93%30.48 "Hg3 mi
9:30 am30 °FIce fog.10 mph93%30.48 "Hg3 mi
9:00 am30 °FIce fog.8 mph93%30.48 "Hg1 mi
Weather by CustomWeather, © 2017

See weather overviewHow to use our weather pages